CW1621 Weather Reports


Display with metric or nautical units.
time (UTC)temp
F
wind
direction
speed
MPH
gust
MPH
rain 1hr
in
rain 24hr
in
rain mn
in
humidity
%
barometer
mb
20260904024104 49 264 10.0 14.0 0.03 0.32 0.31 89 1013.0
20260904023604 49 243 7.0 12.0 0.03 0.32 0.31 89 1013.0
20260904023103 50 274 8.0 12.0 0.02 0.31 0.30 89 1013.1
20260904022603 50 266 6.0 10.0 0.02 0.31 0.30 90 1013.1
20260904022104 50 257 5.0 7.0 0.02 0.31 0.30 89 1013.2
20260904021103 51 247 6.0 9.0 0.02 0.31 0.30 88 1013.1
20260904020603 51 264 7.0 9.0 0.03 0.31 0.30 89 1013.0
20260904015603 53 273 6.0 8.0 0.02 0.30 0.29 89 1012.4
20260904015104 53 112 1.0 3.0 0.02 0.30 0.29 83 1012.3
20260904013603 53 64 0.0 3.0 0.01 0.29 0.28 84 1012.4
20260904012603 53 59 0.0 0.0 0.01 0.29 0.28 89 1012.6
20260904012104 54 59 0.0 0.0 0.01 0.29 0.28 87 1012.8
20260904011603 54 140 0.0 0.0 0.01 0.29 0.28 86 1012.8
20260904011103 54 147 0.0 0.0 0.01 0.29 0.28 85 1012.8
20260904010604 54 147 1.0 2.0 0.00 0.28 0.27 84 1012.9
20260904010104 54 147 2.0 3.0 0.00 0.28 0.27 84 1012.9
20260904005603 54 147 3.0 3.0 0.00 0.28 0.27 84 1012.9
20260904005103 54 123 2.0 5.0 0.00 0.28 0.27 84 1012.8
20260904004603 55 125 5.0 7.0 0.00 0.28 0.27 82 1012.5
20260904004103 55 133 5.0 7.0 0.00 0.28 0.27 82 1012.5
20260904003603 55 139 4.0 9.0 0.00 0.28 0.27 83 1012.6
20260904003103 55 121 1.0 6.0 0.00 0.28 0.27 83 1012.7
20260904002603 55 120 5.0 9.0 0.00 0.28 0.27 82 1012.7
20260904002103 55 112 5.0 10.0 0.00 0.28 0.27 83 1012.7
20260904001603 55 107 10.0 13.0 0.00 0.28 0.27 81 1012.8
20260904001103 55 120 9.0 12.0 0.00 0.28 0.27 82 1012.7
20260904000603 55 102 12.0 13.0 0.00 0.28 0.27 82 1012.6
20260904000103 55 111 10.0 14.0 0.00 0.28 0.27 83 1012.5
20260903235603 56 96 10.0 12.0 0.00 0.28 0.27 82 1012.6
20260903235103 56 84 6.0 10.0 0.00 0.28 0.27 81 1012.8
20260903234103 56 107 7.0 10.0 0.00 0.28 0.27 81 1012.8
20260903233603 56 96 6.0 12.0 0.00 0.28 0.27 82 1012.9
20260903233104 56 105 10.0 12.0 0.00 0.28 0.27 82 1012.9
20260903232603 56 92 7.0 12.0 0.00 0.28 0.27 81 1013.0
20260903231603 56 88 5.0 10.0 0.00 0.28 0.27 80 1013.3
20260903231103 56 111 9.0 12.0 0.00 0.28 0.27 80 1013.2
20260903230603 56 116 9.0 12.0 0.00 0.28 0.27 80 1012.9
20260903225604 55 100 9.0 15.0 0.00 0.28 0.27 80 1013.5
20260903225103 55 88 9.0 12.0 0.00 0.28 0.27 81 1013.5
20260903224603 55 100 10.0 12.0 0.00 0.28 0.27 82 1013.6
20260903224103 55 91 10.0 13.0 0.00 0.28 0.27 82 1013.7
20260903223603 55 95 9.0 14.0 0.00 0.28 0.27 82 1013.6
20260903223103 55 91 12.0 14.0 0.00 0.28 0.27 83 1013.6
20260903222603 55 93 13.0 15.0 0.00 0.28 0.27 82 1013.6
20260903222104 55 98 12.0 16.0 0.00 0.28 0.27 83 1013.4
20260903221104 55 95 12.0 15.0 0.00 0.28 0.27 83 1013.6
20260903215603 54 85 12.0 14.0 0.00 0.28 0.27 84 1013.9
20260903214104 55 88 11.0 13.0 0.00 0.28 0.27 84 1014.2
20260903213603 54 93 9.0 13.0 0.00 0.28 0.27 83 1014.3
20260903213103 54 89 9.0 14.0 0.00 0.28 0.27 84 1014.3
20260903212603 55 96 9.0 13.0 0.00 0.28 0.27 83 1014.2
20260903212104 54 103 10.0 14.0 0.00 0.28 0.27 84 1014.2
20260903211603 54 92 7.0 12.0 0.00 0.28 0.27 84 1014.2
20260903211103 54 86 10.0 12.0 0.00 0.28 0.27 85 1014.2
20260903205603 54 107 10.0 13.0 0.00 0.28 0.27 86 1014.3
20260903205103 54 94 10.0 14.0 0.00 0.28 0.27 86 1014.2
20260903204603 53 94 10.0 15.0 0.00 0.28 0.27 87 1014.3
20260903204103 53 96 9.0 12.0 0.00 0.28 0.27 88 1014.6
20260903203104 53 95 9.0 12.0 0.00 0.28 0.27 88 1014.8
20260903202103 53 86 10.0 14.0 0.00 0.28 0.27 87 1014.8
20260903201604 53 83 12.0 15.0 0.00 0.28 0.27 88 1014.8
20260903201104 53 98 12.0 14.0 0.00 0.28 0.27 87 1014.8
20260903200603 53 94 12.0 14.0 0.00 0.28 0.27 87 1014.7
20260903200103 53 91 12.0 15.0 0.00 0.28 0.27 87 1014.8
20260903195104 53 103 12.0 15.0 0.00 0.28 0.27 86 1014.8
20260903194603 53 88 10.0 15.0 0.00 0.28 0.27 85 1014.9
20260903194103 53 94 10.0 18.0 0.00 0.28 0.27 87 1014.9
20260903193603 53 74 13.0 15.0 0.00 0.28 0.27 85 1014.9
20260903193104 53 88 11.0 13.0 0.00 0.28 0.27 86 1015.0
20260903192604 54 75 13.0 15.0 0.00 0.28 0.27 84 1014.7
20260903192103 54 85 12.0 16.0 0.00 0.28 0.27 86 1014.7
20260903191604 53 91 11.0 17.0 0.00 0.28 0.27 87 1014.9
20260903191103 53 94 12.0 16.0 0.00 0.28 0.27 86 1015.0
20260903190603 53 86 12.0 15.0 0.00 0.28 0.27 84 1014.8
20260903185603 53 83 8.0 13.0 0.00 0.28 0.27 88 1015.1
20260903185103 53 96 10.0 12.0 0.00 0.28 0.27 86 1015.2
20260903184103 53 92 9.0 13.0 0.00 0.28 0.27 87 1015.2
20260903183603 52 113 8.0 12.0 0.00 0.28 0.27 86 1015.5
20260903183103 53 102 9.0 12.0 0.00 0.28 0.27 87 1015.2
20260903182604 52 95 8.0 12.0 0.00 0.28 0.27 86 1015.4
20260903182103 52 97 9.0 12.0 0.00 0.28 0.27 85 1015.3
20260903181604 52 85 9.0 12.0 0.00 0.28 0.27 89 1015.4
20260903181103 52 94 7.0 10.0 0.00 0.28 0.27 87 1015.3
20260903180603 52 98 7.0 12.0 0.00 0.28 0.27 87 1015.2
20260903175104 52 90 5.0 7.0 0.00 0.28 0.27 88 1015.3
20260903174604 51 106 5.0 8.0 0.00 0.28 0.27 90 1015.5
20260903173103 50 69 4.0 7.0 0.00 0.28 0.27 92 1015.5
20260903172604 50 77 7.0 9.0 0.00 0.28 0.27 92 1015.5
20260903171603 50 76 5.0 7.0 0.00 0.28 0.27 91 1015.5
20260903171104 50 82 3.0 5.0 0.00 0.28 0.27 91 1015.5
20260903170603 50 69 5.0 6.0 0.00 0.28 0.27 91 1015.5
20260903170103 51 68 5.0 7.0 0.00 0.28 0.27 92 1015.2
20260903165103 51 69 5.0 6.0 0.00 0.28 0.27 90 1015.2
20260903164603 50 81 3.0 5.0 0.00 0.28 0.27 92 1015.2
20260903164104 50 67 3.0 6.0 0.00 0.29 0.27 92 1015.3
20260903163603 50 94 3.0 6.0 0.00 0.29 0.27 92 1015.3
20260903163103 50 93 2.0 6.0 0.00 0.29 0.27 93 1015.4
20260903162603 50 105 3.0 5.0 0.00 0.29 0.27 94 1015.2
20260903162103 49 66 3.0 5.0 0.00 0.29 0.27 93 1015.2
20260903161604 49 60 3.0 5.0 0.00 0.30 0.27 94 1015.1
20260903161103 49 14 1.0 3.0 0.01 0.30 0.27 93 1015.1
20260903160603 49 12 0.0 0.0 0.01 0.31 0.27 94 1015.0
20260903160106 49 12 0.0 1.0 0.01 0.31 0.27 94 1014.9
20260903155604 49 12 0.0 0.0 0.01 0.31 0.27 94 1014.8
20260903155103 49 277 0.0 0.0 0.02 0.31 0.27 95 1014.9
20260903154604 49 277 0.0 0.0 0.02 0.32 0.27 95 1014.9
20260903154105 49 277 0.0 0.0 0.02 0.32 0.27 95 1014.9
20260903153603 49 277 0.0 1.0 0.02 0.32 0.27 96 1014.8
20260903153104 49 271 0.0 0.0 0.03 0.32 0.27 96 1014.8
20260903152603 49 271 0.0 0.0 0.03 0.32 0.27 96 1014.7
20260903152103 49 271 0.0 0.0 0.03 0.32 0.27 96 1014.8
20260903151604 49 271 0.0 0.0 0.04 0.32 0.27 96 1014.8
20260903151103 49 271 0.0 0.0 0.03 0.31 0.26 96 1014.7
20260903150603 49 271 0.0 0.0 0.04 0.31 0.26 96 1014.5
20260903150104 49 271 0.0 0.0 0.04 0.31 0.26 96 1014.5
20260903145603 49 271 0.0 0.0 0.04 0.31 0.26 96 1014.5
20260903145104 49 271 1.0 3.0 0.04 0.30 0.25 96 1014.3
20260903144603 49 271 0.0 2.0 0.04 0.30 0.25 96 1014.2
20260903144103 49 271 0.0 1.0 0.04 0.30 0.25 96 1014.2
20260903143604 48 271 0.0 2.0 0.04 0.30 0.25 95 1014.1
20260903143104 48 271 0.0 3.0 0.03 0.29 0.24 95 1014.2
20260903142604 48 271 0.0 3.0 0.03 0.29 0.24 95 1014.2
20260903142104 48 271 1.0 3.0 0.03 0.29 0.24 95 1014.4
20260903141603 49 271 2.0 3.0 0.02 0.28 0.23 95 1014.3
20260903141104 49 271 3.0 3.0 0.02 0.28 0.23 95 1014.0
20260903140603 49 271 1.0 3.0 0.01 0.27 0.22 95 1013.8
20260903135604 49 271 5.0 6.0 0.01 0.27 0.22 95 1013.8
20260903135104 49 271 5.0 6.0 0.00 0.26 0.21 95 1013.8
20260903133103 49 271 2.0 3.0 0.00 0.26 0.21 95 1013.3
20260903132603 49 271 2.0 3.0 0.00 0.26 0.21 95 1013.2
20260903132104 49 271 0.0 1.0 0.00 0.26 0.21 95 1013.1
20260903131104 49 271 1.0 3.0 0.01 0.26 0.21 94 1013.1
20260903130603 49 271 2.0 3.0 0.01 0.26 0.21 94 1012.9
20260903125604 49 271 2.0 3.0 0.01 0.26 0.21 94 1012.6
20260903125103 49 271 1.0 3.0 0.01 0.26 0.21 94 1012.6
20260903124604 49 271 3.0 3.0 0.01 0.26 0.21 93 1012.6
20260903124104 49 271 3.0 5.0 0.01 0.26 0.21 93 1012.6
20260903123603 49 271 5.0 6.0 0.01 0.26 0.21 94 1012.6
20260903123103 49 271 5.0 6.0 0.01 0.26 0.21 94 1012.5
20260903122604 49 271 5.0 6.0 0.01 0.26 0.21 94 1012.5
20260903122103 49 271 6.0 6.0 0.02 0.26 0.21 94 1012.5
20260903121603 49 271 5.0 7.0 0.02 0.26 0.21 94 1012.5
20260903121104 49 271 3.0 6.0 0.01 0.25 0.20 95 1012.5
20260903120603 49 271 3.0 6.0 0.01 0.25 0.20 95 1012.4
20260903115604 49 271 2.0 3.0 0.01 0.25 0.20 94 1012.5
20260903115103 49 271 1.0 2.0 0.01 0.25 0.20 94 1012.4
20260903114603 49 271 1.0 2.0 0.01 0.25 0.20 94 1012.4
20260903114103 49 271 3.0 6.0 0.01 0.25 0.20 94 1012.4
20260903113603 49 271 5.0 6.0 0.01 0.25 0.20 94 1012.4
20260903112604 49 270 2.0 3.0 0.01 0.25 0.20 96 1012.3
20260903112103 49 270 2.0 6.0 0.01 0.24 0.19 96 1012.2
20260903111604 50 204 1.0 3.0 0.01 0.24 0.19 96 1011.8
20260903111104 50 184 2.0 2.0 0.01 0.24 0.19 96 1011.8
20260903110103 50 184 1.0 3.0 0.02 0.24 0.19 96 1011.7
20260903105603 50 184 2.0 3.0 0.03 0.24 0.19 96 1011.6
20260903105104 50 184 2.0 3.0 0.03 0.24 0.19 96 1011.6
20260903104603 50 184 3.0 3.0 0.03 0.24 0.19 96 1011.6
20260903103604 50 184 3.0 5.0 0.05 0.24 0.19 96 1011.6
20260903103103 50 187 3.0 5.0 0.05 0.24 0.19 96 1011.6
20260903102604 50 188 3.0 5.0 0.05 0.24 0.19 96 1011.6
20260903102104 50 206 3.0 3.0 0.04 0.23 0.18 96 1011.5
20260903101604 50 206 3.0 3.0 0.04 0.23 0.18 96 1011.5
20260903101103 50 206 0.0 0.0 0.04 0.23 0.18 96 1011.6
20260903100603 50 206 0.0 0.0 0.04 0.23 0.18 96 1011.7
20260903100104 50 206 0.0 0.0 0.03 0.22 0.17 96 1011.7
20260903095603 50 206 0.0 0.0 0.03 0.21 0.16 96 1011.7
20260903095103 50 206 0.0 0.0 0.03 0.21 0.16 95 1011.7
20260903094603 50 206 0.0 0.0 0.03 0.21 0.16 95 1011.6
20260903094104 50 206 0.0 0.0 0.03 0.20 0.15 95 1011.6
20260903093603 50 211 0.0 0.0 0.02 0.19 0.14 95 1011.7
20260903093104 50 242 0.0 0.0 0.02 0.19 0.14 95 1011.7
20260903092604 50 242 0.0 0.0 0.03 0.19 0.14 95 1011.6
20260903092104 50 242 0.0 0.0 0.03 0.19 0.14 95 1011.6
20260903091604 50 242 0.0 0.0 0.03 0.19 0.14 95 1011.6
20260903091103 50 242 0.0 0.0 0.04 0.19 0.14 95 1011.8
20260903090603 50 242 0.0 0.0 0.05 0.19 0.14 95 1011.9
20260903085603 50 240 0.0 1.0 0.07 0.18 0.13 95 1012.1
20260903085103 50 240 0.0 0.0 0.07 0.18 0.13 95 1012.1
20260903084604 50 240 0.0 0.0 0.07 0.18 0.13 94 1012.2
20260903084103 50 240 0.0 0.0 0.06 0.17 0.12 94 1012.3
20260903083104 50 240 1.0 2.0 0.08 0.17 0.12 95 1012.2
20260903082603 50 240 0.0 2.0 0.07 0.16 0.11 95 1012.2
20260903082103 50 240 1.0 3.0 0.08 0.16 0.11 94 1012.2
20260903081604 50 235 1.0 3.0 0.09 0.16 0.11 94 1012.2
20260903081104 50 235 3.0 5.0 0.09 0.15 0.10 94 1012.3
20260903080603 50 335 0.0 0.0 0.09 0.14 0.09 93 1012.3
20260903080104 50 15 0.0 0.0 0.08 0.13 0.08 93 1012.4
20260903075604 50 15 1.0 3.0 0.01 0.11 0.06 93 1012.4
20260903074603 50 29 3.0 3.0 0.02 0.11 0.06 92 1012.1
20260903074103 51 25 1.0 3.0 0.02 0.11 0.06 92 1012.2
20260903073104 51 349 1.0 3.0 0.00 0.09 0.04 91 1012.1
20260903072604 51 356 1.0 3.0 0.00 0.09 0.04 91 1012.2
20260903072103 51 0 1.0 3.0 0.04 0.08 0.03 91 1012.0
20260903071603 51 4 2.0 3.0 0.03 0.07 0.02 90 1012.1
20260903071105 51 348 1.0 6.0 0.02 0.06 0.01 90 1012.2
20260903070604 51 24 2.0 3.0 0.01 0.05 0.00 90 1012.4
20260903070103 52 350 2.0 3.0 0.01 0.05 0.00 89 1012.3
20260903065603 52 311 0.0 2.0 0.01 0.05 0.05 88 1012.6
20260903064604 52 225 1.0 5.0 0.00 0.04 0.04 87 1012.5
20260903064104 52 24 3.0 6.0 0.00 0.04 0.04 86 1012.2
20260903063603 52 29 2.0 5.0 0.00 0.04 0.04 86 1012.3
20260903063103 52 26 1.0 3.0 0.00 0.04 0.04 86 1012.3
20260903062603 52 11 1.0 2.0 0.00 0.04 0.04 86 1012.2
20260903062104 52 11 0.0 0.0 0.00 0.04 0.04 86 1012.2
20260903061603 52 11 0.0 0.0 0.00 0.04 0.04 85 1012.2
20260903061104 52 6 0.0 0.0 0.00 0.04 0.04 85 1012.2
20260903060604 52 5 1.0 3.0 0.00 0.04 0.04 85 1012.3
20260903060104 52 4 2.0 3.0 0.00 0.04 0.04 85 1012.3
20260903055603 52 340 1.0 3.0 0.00 0.04 0.04 85 1012.3
20260903054604 52 342 1.0 3.0 0.00 0.04 0.04 85 1012.2
20260903053604 53 342 1.0 2.0 0.00 0.04 0.04 85 1012.3
20260903053103 53 308 1.0 3.0 0.00 0.04 0.04 85 1012.3
20260903052603 53 287 2.0 6.0 0.00 0.04 0.04 85 1012.4
20260903052103 53 272 1.0 3.0 0.00 0.04 0.04 84 1012.4
20260903051604 53 288 0.0 0.0 0.00 0.04 0.04 84 1012.3
20260903050105 53 310 2.0 5.0 0.00 0.04 0.04 83 1012.4
20260903045603 53 316 2.0 5.0 0.00 0.04 0.04 83 1012.2
20260903045105 54 332 2.0 5.0 0.00 0.04 0.04 83 1012.1
20260903044603 54 32 1.0 3.0 0.00 0.04 0.04 83 1012.1
20260903044104 54 2 3.0 6.0 0.00 0.04 0.04 83 1012.1
20260903043103 54 340 2.0 3.0 0.00 0.04 0.04 82 1012.2
20260903042603 54 306 2.0 5.0 0.00 0.04 0.04 82 1012.1
20260903042104 55 306 2.0 3.0 0.00 0.04 0.04 81 1012.1
20260903041604 55 287 3.0 5.0 0.00 0.04 0.04 80 1012.1
20260903041103 55 301 6.0 12.0 0.00 0.04 0.04 81 1012.0
20260903040605 55 280 6.0 12.0 0.00 0.04 0.04 81 1011.8
20260903035603 56 284 6.0 10.0 0.00 0.04 0.04 80 1011.5
20260903035104 56 287 7.0 12.0 0.00 0.04 0.04 80 1011.4
20260903034603 56 289 7.0 13.0 0.00 0.04 0.04 80 1011.4
20260903034104 56 290 7.0 12.0 0.00 0.04 0.04 80 1011.4
20260903033602 56 294 7.0 14.0 0.00 0.04 0.04 79 1011.3
20260903032603 57 281 10.0 18.0 0.00 0.04 0.04 77 1010.9
20260903032102 57 286 8.0 15.0 0.00 0.04 0.04 76 1010.7
20260903031603 57 284 5.0 12.0 0.00 0.04 0.04 76 1010.7
20260903031103 58 286 12.0 15.0 0.00 0.04 0.04 76 1010.7
20260903030603 59 303 6.0 10.0 0.00 0.04 0.04 73 1010.2
20260903025103 60 283 10.0 17.0 0.00 0.04 0.04 69 1010.0
20260903024602 60 288 12.0 15.0 0.00 0.04 0.04 68 1009.9